Location: Alvis C Story Elementary School
(33.0968°N, 96.6364°W)
Time: 13:46:43
(UTC+00:00)

ISS - Visible Passes

Search period start: 25 May 2022 00:00
Search period end: 04 June 2022 00:00
Orbit: 414 x 421 km, 51.6° (Epoch: 25 May)

Date Brightness Start Highest point End Pass type
(mag) Time Alt. Az. Time Alt. Az. Time Alt. Az.
27 May -0.8 04:25:00 10° NNW 04:25:58 15° N 04:25:58 15° N visible
28 May -1.2 03:37:30 10° N 03:39:23 14° NNE 03:39:31 14° NE visible
29 May -0.9 04:24:58 10° NW 04:26:01 18° NW 04:26:01 18° NW visible
30 May -2.4 03:37:00 10° NNW 03:39:37 33° NNE 03:39:37 33° NNE visible
31 May -1.8 02:49:12 10° NNW 02:51:49 21° NE 02:53:15 16° ENE visible
31 May -0.8 04:25:36 10° WNW 04:26:09 14° WNW 04:26:09 14° WNW visible
01 Jun -1.3 02:01:40 10° N 02:03:26 14° NNE 02:05:12 10° ENE visible
01 Jun -3.0 03:37:10 10° NW 03:39:49 49° WNW 03:39:49 49° WNW visible
02 Jun -3.6 02:48:58 10° NW 02:52:17 62° NE 02:53:31 34° ESE visible
03 Jun -2.6 02:00:56 10° NNW 02:04:00 33° NE 02:07:04 10° ESE visible
03 Jun -1.5 03:38:15 10° W 03:40:11 17° WSW 03:40:11 17° WSW visible
